Regional Weather Roundup
Issued by NWS

Home | Current Version | Previous Version | Graphics & Text | Print | Product List | Glossary On
Versions: 1 2 3 4 5 6 7 8 9 10 11 12 13 14 15 16 17 18 19 20 21 22 23 24 25 26 27 28 29 30 31 32 33 34 35 36 37 38 39 40 41 42 43 44 45 46 47 48 49 50
000
ASUS43 KOAX 221102
RWRNE

WEATHER ROUNDUP FOR NEBRASKA
NATIONAL WEATHER SERVICE OMAHA NE
600 AM CDT TUE MAY 22 2018

NOTES: SATELLITE DATA IS BEING USED TO AUGMENT CLOUD COVER ABOVE
       12000 FEET.
       "FAIR" INDICATES FEW OR NO CLOUDS BELOW 12,000 FEET WITH NO
       SIGNIFICANT WEATHER AND/OR OBSTRUCTIONS TO VISIBILITY.


NEZ001>004-019>022-054>056-221200-
NEBRASKA PANHANDLE

CITY           SKY/WX    TMP DP  RH WIND       PRES   REMARKS
SCOTTSBLUFF    MOCLDY    52  52 100 S6        29.97R
ALLIANCE       CLEAR     46  46 100 S3        29.96R
CHADRON        CLEAR     49  48  97 CALM      29.93R
GORDON         FAIR      46  45  95 NW6       29.95R
KIMBALL        MOCLDY    50  50  98 CALM      29.98S FOG
SIDNEY         FOG       50  50 100 E3        29.96S VSB 1/4
$$

NEZ057>060-069>072-079>082-221200-
SOUTHWEST NEBRASKA

CITY           SKY/WX    TMP DP  RH WIND       PRES   REMARKS
NORTH PLATTE   PTCLDY    54  54 100 SE7       29.92R FOG
IMPERIAL       MOCLDY    53  50  89 SW6       29.93R
LEXINGTON      PTCLDY    61  58  91 S10       29.92S
MCCOOK         MOCLDY    59  56  89 SW5       29.93R
OGALLALA       CLEAR     53  53  98 CALM      29.93R FOG
$$

NEZ005>010-023>029-035>040-094-221200-
NORTH CENTRAL NEBRASKA

CITY           SKY/WX    TMP DP  RH WIND       PRES   REMARKS
VALENTINE      CLEAR     55  54  96 E5        29.94R FOG
AINSWORTH      CLEAR     55  55  99 CALM      29.94S
BROKEN BOW     CLEAR     57  56  96 SE5       29.92R
O`NEILL        CLEAR     64  58  80 E8        29.95R
ORD            CLEAR     60  57  89 SE6       29.92R
THEDFORD       FOG       53  53  98 CALM      29.95R VSB 1/4
$$

NEZ041-046>049-061>064-073>077-083>087-221200-
SOUTH CENTRAL NEBRASKA

CITY           SKY/WX    TMP DP  RH WIND       PRES   REMARKS
GRAND ISLAND   CLEAR     63  58  83 S14       29.95R
AURORA         MOCLDY    65  60  85 S14       29.96S
HASTINGS       CLEAR     62  58  86 S13       29.95R
HEBRON         PTCLDY    64  60  85 S9        29.99R
HOLDREGE       CLOUDY    62  60  93 S14G22    29.92S
KEARNEY        CLEAR     61  58  90 S12       29.93R
YORK           CLOUDY    64  63  94 S10       29.97S
$$

NEZ011>018-030>034-042>045-221200-
NORTHEAST NEBRASKA

CITY           SKY/WX    TMP DP  RH WIND       PRES   REMARKS
NORFOLK        MOCLDY    61  57  87 E7        29.95S
ALBION         CLOUDY    60  58  91 SE10      29.94F
BLAIR          CLOUDY    61  57  87 SE5       29.98S
COLUMBUS       LGT RAIN  63  58  83 SE8       29.96S
FREMONT        PTCLDY    62  57  84 SE8       29.98F
TEKAMAH        CLOUDY    59  58  96 NE3       29.99R
WAYNE          CLOUDY    61  60  96 SE8       29.98S
$$

NEZ050>053-065>068-078-088>093-221200-
SOUTHEAST NEBRASKA

CITY           SKY/WX    TMP DP  RH WIND       PRES   REMARKS
LINCOLN        PTCLDY    62  58  86 SE6       29.98R
OMAHA EPPLEY   CLOUDY    61  57  87 SE6       29.99R
BEATRICE       HVY RAIN  66  62  89 S9        30.00R
FALLS CITY     CLOUDY    61  58  90 S6        30.00R
NEBRASKA CITY  PTCLDY    60  60 100 S7        30.00R
PLATTSMOUTH    PTCLDY    60  58  93 SE5       30.00S
$$

NEZ044-045-051>053-067-221200-
OMAHA AREA

CITY           SKY/WX    TMP DP  RH WIND       PRES   REMARKS
OMAHA EPPLEY   CLOUDY    61  57  87 SE6       29.99R
BLAIR          CLOUDY    61  57  87 SE5       29.98S
FREMONT        PTCLDY    62  57  84 SE8       29.98F
MILLARD        MOCLDY    62  58  86 SE3       29.99S
OFFUTT AFB     CLOUDY    57  57 100 CALM      29.98R
PLATTSMOUTH    PTCLDY    60  58  93 SE5       30.00S
WAHOO          FAIR      58  55  87 E7        29.98S
$$



USA.gov is the U.S. government's official web portal to all federal, state and local government web resources and services.